Location: Holyhead Bay
(53.3667°N, 4.6667°W)
Time: 00:08:03
(UTC+00:00)

ADEOS Rocket - Pass Details

Date: 21 April 2021
Orbit: 859 x 1306 km, 98.7° (Epoch: 15 May)

Event Time Altitude Azimuth Distance (km) Brightness Sun altitude
Exits shadow 04:08:26 - 204° (SSW) 3,371 5.3 -8.4°
Reaches altitude 10° 04:10:00 10° 211° (SSW) 2,880 4.9 -8.2°
Maximum altitude 04:15:42 30° 272° (W) 1,901 4.1 -7.5°
Drops below altitude 10° 04:21:56 10° 331° (NNW) 3,165 5.7 -6.7°
Sets 04:25:07 0° 342° (NNW) 4,192 6.5 -6.3°
